L34 Galhassin Robotic Telescope, Isnello.  Observer A. Nastasi.  0.40-m f/3.8
    400mm Reflector + CMO.
L47 Osservatorio Astronomico, Piobbico.  Observers A. Teseo, A. Annamelia.
    Measurer A. Teseo.  0.28-m f/6.3 Schmidt-Cassegrain + CMO.
L90 ABObservatory, Rosarno.  Observer A. Brosio.  0.30-m f/3.9 reflector +
    CCD.
M26 Zen Observatory, Scandicci.  Observers M. Lombardo, K. Lombardo, L.
    Cavina.  Measurers M. Lombardo, K. Lombardo.  0.30-m f/7.4 Ritchey
    Chretien + CCD.
M45 Starhopper Observatory, Sfantu Gheorghe.  Observer F. Ursache.  0.41-m
    f/7.5 reflector + CMO.
Q06 Tarui Observatory, Tarui.  Observer H. Watanabe.  0.35-m f/1.9 Schmidt-
    Cassegrain + CMO.
T08 ATLAS-MLO, Mauna Loa.  Observers L. Denneau, R. Siverd, J. Tonry, H.
    Weiland.  Measurers L. Denneau, N. Erasmus, A. Fitzsimmons, J. Robinson,
    R. Siverd, J. Tonry, H. Weiland.  0.5-m Reflector + CCD.
W62 Comet Hunter Observatory2, New Ringgold.  Observer J. Maikner.  0.30-m
    f/3.8 Riccardi-Honders + CCD.
Z80 Northolt Branch Observatory.  Observer G. Wells.  0.25-m f/8.0 Ritchey-
    Chretien + CCD.
Z84 Calar Alto-Schmidt.  Observers F. Ocana, M. Micheli, R. Kresken, L.
    Conversi.  Measurers F. Ocana, M. Micheli.  0.8-m f/3 Schmidt + CCD.
Orbital elements:
2024 OF                                                  Earth MOID = 0.0467 AU
Epoch 2024 Oct. 17.0 TT = JDT 2460600.5                 Veres                   
M  16.60679              (2000.0)            P               Q                  
n   0.29585695     Peri.   36.61257     +0.89624618     +0.41852491             
a   2.2305649      Node   298.02107     -0.43611552     +0.77106854             
e   0.5466303      Incl.    9.57900     -0.08090759     +0.47988561             
P   3.33           H   23.75          G   0.15           U   7                  
Residuals in seconds of arc
240727 T08  0.3+  0.3+    240727 J57  0.1+  0.4+    240728 204  0.0   0.2+
240727 T08  0.3+  0.5-    240727 C40  0.5+  0.3+    240728 204  0.2-  0.1+
240727 T08  0.3+  0.1+    240727 M26  0.3-  0.1-    240728 L34  0.3-  0.3-
240727 T08  0.0   0.6-    240727 J57  0.4+  0.1+    240728 L34  0.2-  0.2+
240727 M45  0.1+  0.1+    240727 104  0.0   0.1-    240728 L34  0.0   0.1-
240727 M45  0.1+  0.2+    240727 C40  0.6+  0.1-    240728 807  0.2-  0.1+
240727 M45  0.1+  0.5+    240727 G17  0.0   0.5-    240728 807  0.1-  0.2+
240727 K78  0.1-  0.1-    240727 C40  0.2+  0.4+    240728 807  0.1+  0.1+
240727 106  0.2+  0.0     240727 L90  0.6+  0.4+    240728 W62  0.1+  0.3+
240727 106  0.1-  0.1+    240727 104  0.1-  0.2+    240728 W62  0.0   0.3+
240727 K78  0.0   0.2+    240727 595  0.1+  0.1+    240728 W62  0.1+  0.5+
240727 106  0.0   0.1+    240727 L90  1.3+  0.8+    240728 Q06  0.7-  0.3+
240727 L18  0.7-  0.5+    240727 Z80  0.4-  0.1-    240728 Q06  0.8-  0.9+
240727 K78  0.2+  0.1+    240727 595  0.1+  0.2+    240728 G34  0.4+  0.5-
240727 106  0.1+  0.0     240727 L90 (3.8+  1.3+)   240728 D63  0.3-  0.2+
240727 L18  0.7-  0.5-    240727 K51  0.2-  0.4-    240728 G34  0.1-  0.3-
240727 L18  0.4+  0.4-    240727 G17  0.2-  0.3-    240728 G34  0.4+  0.2-
240727 J95  0.1-  0.0     240727 C82  0.2+  0.2+    240728 D63  0.5-  0.6-
240727 J95  0.2-  0.3-    240727 595  0.4+  0.0     240728 L47  0.2-  0.4+
240727 J95  0.1-  0.3-    240727 C82  0.4-  0.4-    240728 G34  0.1+  0.6+
240727 L01  0.1+  0.2-    240727 K51  0.1-  0.4-    240728 L47  0.1-  0.2+
240727 L01  0.2+  0.3-    240727 Z80  0.5-  0.5+    240728 D63  0.3+  0.2-
240727 L01  0.2-  0.3-    240727 C82  0.4-  0.1-    240728 G02  0.5-  0.2-
240727 L01  0.5-  0.0     240727 K51  0.3-  0.1+    240728 G02  0.1+  0.4-
240727 L01  0.5-  0.0     240728 Z84  0.1-  0.1-    240728 I93  0.2-  0.0
240727 M26  0.2-  0.6+    240728 Z84  0.0   0.1-    240728 I93  0.0   0.0
240727 J57  0.3+  0.1+    240728 Z84  0.0   0.1-    240728 G02  0.4+  0.6+
240727 M26  0.5-  0.4+    240728 L34  0.4+  0.3+    240728 I93  0.0   0.0
240727 104  0.5-  0.2-    240728 204  0.1-  0.1-
Ephemeris:
2024 OF                  a,e,i = 2.23, 0.55, 10                  q = 1.0113
Date    TT    R. A. (2000) Decl.     Delta      r    Elong.  Phase     V
2024 06 28    18 41 28.4 -44 02 16   0.2091  1.2142   159.1    17.4    21.7
...
2024 07 13    19 07 10.6 -36 06 30   0.1130  1.1261   164.9    13.6    20.1
...
2024 07 21    19 39 46.3 -21 28 32   0.07114 1.0869   174.7     4.9    18.6
...
2024 07 27    20 24 58.1 +04 23 30   0.05061 1.0621   156.4    22.5    18.5
2024 07 28    20 35 13.8 +10 22 18   0.04898 1.0584   150.6    28.1    18.6
2024 07 29    20 46 28.0 +16 37 48   0.04804 1.0548   144.5    34.0    18.7
...
2024 08 04    22 17 08.2 +49 36 25   0.05647 1.0360   110.8    66.3    19.9
...
2024 08 12    00 51 49.8 +65 17 39   0.08918 1.0189    91.1    83.9    21.5
...
2024 08 27    03 27 40.9 +65 35 33   0.1622  1.0133    86.4    84.4    22.8
M. P. C. Staff               (C) Copyright 2024 MPC           M.P.E.C. 2024-O72
    
    
More information about the Iaude
mailing list